Simultaneous Nadir Overpasses (SNOs) Predictions

Prediction of SNOs between GOES-17 and LANDSAT-8 Satellite Orbit:

Table of predicted SNOs for the next 14.0 days since TLE Epoch: 1/1/2023
Index Date Time (GOES-17) GOES-17 Lat,Lon LANDSAT-8 Lat,Lon Distance(km) Time Diff (sec)
1 01/02/2023 19:22:54 0.01,-137.32 -0.00,-137.21 12.65 80
2 01/04/2023 19:10:43 0.01,-137.30 -0.66,-134.26 346.58 80
3 01/05/2023 07:32:07 -0.01,-137.29 -0.45,-139.45 245.11 80
4 01/07/2023 07:17:15 -0.01,-137.26 0.16,-136.49 88.12 80
5 01/07/2023 19:38:29 0.01,-137.26 0.96,-141.64 498.50 80
6 01/09/2023 07:05:03 -0.00,-137.23 0.79,-133.53 420.96 80
7 01/09/2023 19:26:18 0.00,-137.23 0.33,-138.68 165.74 80
8 01/11/2023 19:16:46 -0.00,-137.19 -0.32,-135.73 166.82 80
9 01/12/2023 07:38:09 0.00,-137.18 -0.78,-140.92 424.96 80
10 01/13/2023 19:04:33 -0.00,-137.16 -0.91,-132.76 499.06 80
11 01/14/2023 07:25:56 0.00,-137.14 -0.18,-137.95 92.85 80
